College Park, MD

4:11 PM EDT on June 26, 2017 (GMT -0400)
College Park

Weather History for KCGS - January, 2014

Change the Weather History Date:

Thursday, January 2, 2014

  Actual Average Record
Temperature  
Mean Temperature 34 °F -  
Max Temperature 38 °F 42 °F 64 °F (1979)
Min Temperature 30 °F 27 °F 0 °F (1968)
Degree Days  
Heating Degree Days 31    
Moisture  
Dew Point 33 °F    
Average Humidity 95    
Maximum Humidity 100    
Minimum Humidity 83    
Precipitation  
Precipitation 0.00 in - - ()
Sea Level Pressure  
Sea Level Pressure 29.86 in    
Wind  
Wind Speed 2 mph (NNE)    
Max Wind Speed 6 mph    
Max Gust Speed -    
Visibility 5 miles    
Events      
Averages and records for this station are not official NWS values.
T = Trace of Precipitation, MM = Missing Value Source: NWS Daily Summary

Daily Weather History Graph

Daily Weather History Graph

Search for Another Location

Airport or City:

Trip Planner

Search our weather history database for the weather conditions in past years. The results will help you decide how hot, cold, wet, or windy it might be!

Date:

Astronomy

Jan. 02, 2014 Rise Set
Actual Time 7:26 AM EST 4:57 PM EST
Civil Twilight 6:56 AM EST 5:26 PM EST
Nautical Twilight 6:23 AM EST 6:00 PM EST
Astronomical Twilight 5:51 AM EST 6:32 PM EST
Moon 8:07 AM EST (1/2) 6:50 PM EST (1/2)
Length of Visible Light 10h 30m
Length of Day
9h 30m
New Moon, 2% of the Moon is Illuminated
Jan 2
New Moon
Jan 7
First Quarter
Jan 15
Full
Jan 24
Last Quarter
Jan 30
New

Hourly Weather History & Observations

Time (EST) Temp. Windchill Dew Point Humidity Pressure Visibility Wind Dir Wind Speed Gust Speed Precip Events Conditions
12:05 AM 32.0 °F - 30.9 °F 96% 30.13 in 10.0 mi Calm Calm - N/A   Clear
12:25 AM 31.8 °F - 30.4 °F 94% 30.12 in 10.0 mi Calm Calm - N/A   Clear
12:45 AM 32.0 °F - 30.9 °F 96% 30.11 in 10.0 mi Calm Calm - N/A   Clear
1:05 AM 32.0 °F - 31.1 °F 96% 30.10 in 10.0 mi Calm Calm - N/A   Clear
1:25 AM 32.0 °F - 30.9 °F 96% 30.10 in 10.0 mi Calm Calm - N/A   Clear
1:45 AM 32.0 °F - 31.5 °F 98% 30.09 in 10.0 mi Calm Calm - N/A   Clear
2:05 AM 32.0 °F - 30.9 °F 96% 30.09 in 10.0 mi Calm Calm - N/A   Clear
2:25 AM 32.0 °F - 31.1 °F 96% 30.10 in 10.0 mi Calm Calm - N/A   Clear
2:45 AM 31.5 °F - 30.7 °F 97% 30.09 in 10.0 mi Calm Calm - N/A   Clear
3:05 AM 31.1 °F - 30.7 °F 99% 30.08 in 7.0 mi Calm Calm - N/A   Clear
3:25 AM 31.6 °F - 31.1 °F 98% 30.07 in 10.0 mi Calm Calm - N/A   Clear
3:45 AM 31.8 °F 28.5 °F 31.5 °F 99% 30.06 in 10.0 mi North 3.5 mph - N/A   Clear
4:05 AM 32.0 °F - 31.6 °F 99% 30.04 in 10.0 mi Calm Calm - N/A   Clear
4:25 AM 31.5 °F - 30.9 °F 98% 30.03 in 7.0 mi Calm Calm - N/A   Clear
4:45 AM 30.7 °F - 30.2 °F 98% 30.02 in 5.0 mi Calm Calm - N/A   Clear
5:05 AM 30.9 °F - 30.6 °F 99% 30.02 in 7.0 mi Calm Calm - N/A   Clear
5:25 AM 30.7 °F - 30.2 °F 98% 30.02 in 5.0 mi Calm Calm - N/A   Clear
5:45 AM 32.0 °F - 32.0 °F 100% 30.02 in 7.0 mi Calm Calm - N/A   Clear
6:05 AM 30.2 °F - 29.8 °F 99% 30.00 in 7.0 mi Calm Calm - N/A   Clear
6:25 AM 30.7 °F - 30.4 °F 99% 29.99 in 7.0 mi Calm Calm - N/A   Scattered Clouds
6:45 AM 32.0 °F - 32.0 °F 100% 29.99 in 7.0 mi Calm Calm - N/A   Mostly Cloudy
7:05 AM 32.5 °F - 32.2 °F 99% 30.00 in 4.0 mi Calm Calm - N/A   Overcast
7:25 AM 33.1 °F 30.0 °F 32.9 °F 99% 29.99 in 0.8 mi NE 3.5 mph - N/A   Overcast
7:45 AM 33.4 °F 29.1 °F 33.3 °F 99% 29.99 in 0.5 mi NNE 4.6 mph - N/A   Overcast
8:05 AM 33.8 °F - 33.4 °F 99% 29.99 in 0.2 mi Calm Calm - N/A   Overcast
8:25 AM 34.0 °F 31.0 °F 33.8 °F 99% 29.98 in 1.5 mi NNE 3.5 mph - N/A   Overcast
8:45 AM 34.2 °F 31.2 °F 34.0 °F 99% 29.97 in 4.0 mi NE 3.5 mph - N/A   Overcast
9:05 AM 34.3 °F 31.4 °F 34.0 °F 99% 29.96 in 5.0 mi NNE 3.5 mph - N/A   Overcast
9:25 AM 34.7 °F 31.8 °F 34.2 °F 98% 29.96 in 5.0 mi NNE 3.5 mph - N/A   Overcast
9:45 AM 34.9 °F 32.0 °F 33.4 °F 94% 29.96 in 5.0 mi NNE 3.5 mph - N/A   Overcast
10:05 AM 35.6 °F 32.8 °F 33.3 °F 91% 29.96 in 5.0 mi NNE 3.5 mph - N/A   Overcast
10:25 AM 35.6 °F 31.7 °F 32.9 °F 90% 29.94 in 5.0 mi ENE 4.6 mph - N/A   Overcast
10:45 AM 35.8 °F 31.9 °F 33.3 °F 91% 29.94 in 5.0 mi NE 4.6 mph - N/A   Overcast
11:05 AM 35.8 °F 31.9 °F 33.1 °F 90% 29.91 in 5.0 mi NE 4.6 mph - N/A   Overcast
11:25 AM 36.5 °F 32.7 °F 33.6 °F 89% 29.89 in 5.0 mi NNE 4.6 mph - N/A   Overcast
11:45 AM 36.9 °F 34.3 °F 33.6 °F 88% 29.88 in 5.0 mi North 3.5 mph - N/A   Overcast
12:05 PM 37.4 °F 32.8 °F 33.4 °F 86% 29.86 in 5.0 mi NNE 5.8 mph - N/A   Overcast
12:25 PM 37.4 °F 33.8 °F 33.6 °F 86% 29.85 in 5.0 mi NE 4.6 mph - N/A   Overcast
12:45 PM 37.4 °F 32.8 °F 33.3 °F 85% 29.83 in 7.0 mi NNE 5.8 mph - N/A   Overcast
1:05 PM 37.8 °F 34.2 °F 33.3 °F 84% 29.80 in 7.0 mi NE 4.6 mph - N/A   Overcast
1:25 PM 37.9 °F 33.5 °F 33.3 °F 83% 29.79 in 7.0 mi NE 5.8 mph - N/A   Overcast
1:45 PM 37.8 °F 35.3 °F 33.3 °F 84% 29.80 in 7.0 mi NE 3.5 mph - N/A   Overcast
2:05 PM 37.8 °F - 33.3 °F 84% 29.80 in 7.0 mi Calm Calm - N/A   Overcast
2:25 PM 38.1 °F 35.7 °F 33.3 °F 83% 29.80 in 7.0 mi NE 3.5 mph - N/A   Overcast
2:45 PM 38.1 °F - 33.3 °F 83% 29.79 in 7.0 mi Calm Calm - N/A   Overcast
3:05 PM 37.8 °F 35.3 °F 33.4 °F 84% 29.77 in 7.0 mi ENE 3.5 mph - N/A   Overcast
3:25 PM 37.6 °F 34.0 °F 33.8 °F 86% 29.75 in 7.0 mi ENE 4.6 mph - N/A   Overcast
3:45 PM 37.4 °F 33.8 °F 33.8 °F 87% 29.74 in 5.0 mi ENE 4.6 mph - N/A   Overcast
4:05 PM 37.0 °F 33.3 °F 34.2 °F 89% 29.73 in 4.0 mi ENE 4.6 mph - N/A   Overcast
4:25 PM 36.7 °F 32.9 °F 34.7 °F 93% 29.73 in 4.0 mi ENE 4.6 mph - N/A   Overcast
4:45 PM 36.0 °F 31.1 °F 34.3 °F 94% 29.71 in 3.0 mi NE 5.8 mph - N/A   Overcast
5:05 PM 35.4 °F 31.5 °F 34.0 °F 94% 29.70 in 3.0 mi ENE 4.6 mph - N/A   Overcast
5:25 PM 34.9 °F 30.8 °F 33.8 °F 96% 29.69 in 3.0 mi NE 4.6 mph - N/A   Overcast
5:45 PM 34.7 °F 30.6 °F 33.8 °F 97% 29.68 in 4.0 mi NNE 4.6 mph - N/A   Overcast
6:05 PM 34.7 °F 31.8 °F 33.8 °F 97% 29.69 in 3.0 mi NE 3.5 mph - N/A   Overcast
6:25 PM 34.2 °F 31.2 °F 33.4 °F 97% 29.68 in 1.5 mi North 3.5 mph - N/A   Overcast
6:45 PM 34.0 °F - 33.4 °F 98% 29.68 in 1.0 mi Calm Calm - N/A   Overcast
7:05 PM 33.8 °F - 33.3 °F 98% 29.67 in 1.2 mi Calm Calm - N/A   Overcast
7:25 PM 33.8 °F - 33.3 °F 98% 29.68 in 0.8 mi Calm Calm - N/A   Overcast
7:45 PM 33.6 °F - 33.3 °F 99% 29.67 in 1.0 mi Calm Calm - N/A   Overcast
8:05 PM 33.4 °F - 33.1 °F 99% 29.66 in 1.0 mi Calm Calm - N/A   Overcast
8:25 PM 33.4 °F - 33.1 °F 99% 29.66 in 1.5 mi Calm Calm - N/A   Overcast
8:45 PM 32.9 °F 29.8 °F 32.5 °F 99% 29.65 in 1.2 mi North 3.5 mph - N/A   Overcast
9:05 PM 32.9 °F 29.8 °F 32.2 °F 97% 29.65 in 1.2 mi North 3.5 mph - N/A   Overcast
9:25 PM 32.2 °F - 32.0 °F 99% 29.63 in 1.2 mi Calm Calm - N/A   Overcast
9:45 PM 32.0 °F - 32.0 °F 100% 29.65 in 1.2 mi Calm Calm - N/A   Overcast
10:05 PM 32.0 °F - 32.0 °F 100% 29.63 in 1.2 mi Calm Calm - N/A   Overcast
10:25 PM 32.0 °F 28.7 °F 32.0 °F 100% 29.63 in 1.2 mi NNE 3.5 mph - N/A   Overcast
10:45 PM 32.0 °F 28.7 °F 31.8 °F 99% 29.63 in 1.2 mi North 3.5 mph - N/A   Overcast
11:05 PM 32.0 °F 28.7 °F 31.8 °F 99% 29.63 in 1.2 mi North 3.5 mph - N/A   Overcast
11:25 PM 32.0 °F 27.5 °F 31.8 °F 99% 29.63 in 1.8 mi NNW 4.6 mph - N/A   Overcast
11:45 PM 31.5 °F 25.8 °F 30.9 °F 98% 29.65 in 1.8 mi North 5.8 mph - N/A   Overcast